Powrót do katalogu

FREGAT DEB

AktywnyUNKNOWN
NORAD 45979·DEBRIS·🇷🇺 Russia

Wystrzelony Jul 18, 2011 z Baikonur Cosmodrome

Loading…

Następne Przeloty (najbliższe 24 godziny)

TLE

ŚwieżeSource: Space-Track

Epoka: Sep 13, 2026, 14:58 UTC

1 45979U 11037GL  26256.62396195  .00000521  00000-0  10317-2 0  9990
2 45979  51.5257 359.6074 1894690 235.0668 105.7453 10.63296065238356

Śledź FREGAT DEB w czasie rzeczywistym z AllMySat

Download on the App Store